Home   Weather   Schwyz   Past weeks

Flag for Switzerland Past Weather in Schwyz, Schwyz, Switzerland — Yesterday and Last 2 Weeks

Now
29 °F

Clear.


Feels Like: 25 °F
Forecast: 30 / 45 °F
Wind: 3 mph from South

Location: Altdorf

Current Time: Dec 3, 2016 at 11:00:29 pm

Latest Report: Dec 3, 2016 at 10:00 pm


Visibility: 19 mi

Pressure: 30.26 "Hg (28.36 "Hg at 515m altitude)

Humidity: 91%

Dew Point: 26 °F

Location of SchwyzLocation

Past Weather in Schwyz — Graph

°F

Schwyz Temperature Yesterday

Maximum temperature yesterday: 40 °F (at 1:00 pm)
Minimum temperature yesterday: 26 °F (at 6:00 am)
Average temperature yesterday: 31 °F

High & Low Weather Summary for the Past Weeks

 TemperatureHumidityPressure
High67 °F (Nov 23, 2:00 pm)100% (Nov 19, 10:00 pm)30.66 "Hg (Nov 19, 10:00 pm)
Low24 °F (Dec 3, 8:00 am)29% (Nov 20, 10:00 pm)29.59 "Hg (Nov 21, 12:00 pm)
Average46 °F69%30.06 "Hg
* Reported Nov 18 9:00 pm — Dec 3 9:00 pm, Schwyz, Weather by CustomWeather, © 2016

Note: Actual official high and low records may vary slightly from our data, if they occured in-between our weather recording intervals... More about our weather records

Advertising

Schwyz Weather History for the Previous 24 Hours

Scroll right to see more
 ConditionsComfort  
Time TempWeatherWind HumidityBarometerVisibility
9:00 pm
Sat, Dec 3
29 °FChilly.2 mph90%30.26 "HgN/A
8:00 pm32 °FChilly.5 mph79%30.24 "HgN/A
7:00 pm33 °FOvercast.3 mph84%30.24 "Hg12 mi
6:00 pm32 °FChilly.3 mph86%30.23 "HgN/A
5:00 pm29 °FChilly.3 mph88%30.21 "HgN/A
4:00 pm34 °FPassing clouds.1 mph82%30.19 "Hg19 mi
3:00 pm34 °FChilly.1 mph83%30.17 "HgN/A
2:00 pm36 °FChilly.1 mph77%30.17 "HgN/A
1:00 pm38 °FPassing clouds.1 mph75%30.16 "Hg19 mi
12:00 pm36 °FChilly.1 mph77%30.18 "HgN/A
11:00 am33 °FChilly.2 mph86%30.20 "HgN/A
10:00 am28 °FPassing clouds.2 mph91%30.20 "Hg19 mi
9:00 am27 °FChilly.5 mph90%30.19 "HgN/A
8:00 am24 °FCold.5 mph93%30.20 "HgN/A
7:00 am27 °FPassing clouds.3 mph91%30.18 "Hg12 mi
6:00 am28 °FChilly.3 mph90%30.17 "HgN/A
5:00 am29 °FChilly.2 mph87%30.18 "HgN/A
4:00 am26 °FChilly.3 mph91%30.19 "HgN/A
3:00 am26 °FChilly.2 mph91%30.19 "HgN/A
2:00 am27 °FChilly.2 mph92%30.18 "HgN/A
1:00 am29 °FOvercast.2 mph91%30.18 "Hg9 mi
12:00 am26 °FChilly.2 mph94%30.20 "HgN/A
11:00 pm
Fri, Dec 2
26 °FChilly.2 mph94%30.20 "HgN/A
Weather by CustomWeather, © 2016

See weather overviewHow to use our weather pages